Showing default

COSMOS 2269, 23000

Orbit data source: Space-Track

COSMOS 2269, 23000 is a payload satellite owned by VKS (CIS) in LEO that was launched on Sat, 12 Feb 1994 UTC via a TSIKLON-3 launch vehicle from the Plesetsk Missile And Space Complex (PKMTR). Payload-class satellites include a variety of spacecraft equipped with specific instruments for various scientific and technological missions. These include communications satellites like Starlink; space stations such as the ISS; scientific satellites like the Hubble; Earth observation satellites from companies like Planet Labs, Umbra, and HawkEye 360; GPS; miniature CubeSats for education and research; and military/defense satellites.

Loading next visibility...
Identifier
23000, 1994-011B
Orbit
LEO
Country
Flag of CISCIS
Related business
Manufacturer
NPO PM
Mission
Defense Communications
Bus & Motor
STRELA-3, Unknown motor
Mass
225 kg wet, 225 kg dry
Launch date (UTC)
1994-02-12 (32 years ago)
Launch vehicle
TSIKLON-3
Launch site
Plesetsk Missile And Space Complex (PKMTR)
Object type
Payload
Rocket body
Debris
Shape & HBR
Cyl, 0.8 m
Radar Cross Section
1.257 m², Large (>1 m²)

Expand to show TLE details & history
Last TLE update: 10 hours ago

TLE from 10 hours ago
0 COSMOS 2269
1 23000U 94011B   26035.47551846  .00000020  00000-0  55359-4 0  9999
2 23000  82.5650  45.8547 0008057 125.7818 348.5927 12.61939676472931
Epoch: 2026-02-04T11:24Z
TLE epoch observation values (Epoch: 2026-02-04T11:24:44.794Z)
Latitude
64.68212°
Longitude
-95.90496°
Altitude
1,419.917 km
Speed
7.159 km/s
True Right ascension
13h 59m 41s
True Declination
64° 33' 37"
Sunlit
Object was in daylight at epoch
Visualization orbit readout
Latitude
Unknown
Longitude
Unknown
Altitude
Unknown
Speed
Unknown
Apparent Right ascension
Unknown
Apparent Declination
Unknown
Sunlit
N/A
Visualization observer readout
Local Sidereal Time
23:27:56
Azimuth
Unknown
Elevation
Unknown
Doppler factor
Unknown
Orbital elements
Apogee altitude
1,418.547 km
Perigee altitude
1,405.994 km
Semi-major axis
7,790.407 km
Eccentricity
0.00081
Inclination
82.565°
RAAN
45.8547°
Arg. of periapsis
125.7818°
True anomaly
348.57442°
Mean anomaly
348.5927°
Eccentric anomaly
348.58356°
Mean motion
3.15648 °/min
Orbital period
114.05 mins
BSTAR
0.000055359
Loading maneuver chart data...
Computing Atmospheric mass density...
Loading historical data...
Loading historical data...
Loading historical data...
Loading historical data...
Loading historical data...
Loading historical data...
Loading historical data...

Documentation

Showing up to 5 results
|